Погода в Садовом

Украина / Харьковская область     48°49′41″N   36°34′53″E
темп.,
°C
ветер,
м/с
пор.,
м/с
влажн.,
%
обл.,
%
осадки,
мм/ч
давл.,
гПа
погр.,
м
26 февраля, пт
пт2623:00+1зюз4899100 0.0 1025186
02:00+2з4899100 0.1 1025153
05:00+2зсз4999100 0.0 1024217
08:00+3з3699100 0.1 1023109
11:00+5з4898100 0.0 1023240
14:00+6зюз699395 0.0 1021490
17:00+5зюз51197100 0.0 1019331
20:00+4з51098100 0.0 1018260
27 февраля, сб
сб2723:00+3з4798100 0.0 1017167
02:00+3з3798100 0.0 1016201
05:00+3з4998100 0.0 1014279
08:00+3з51098100 0.3 1014370
11:00+5зсз5985100 0.6 1015667
14:00+4сз5882100 0.6 1015798
17:00+3сз5980100 0.1 1015510
20:00+2сз4893100 0.2 1016493
28 февраля, вс
вс2823:00+1сз3696100 0.1 1016379
02:00+1сз3596100 0.2 1017298
05:00+1сз4797100 0.1 1017376
08:00+1сз359598 0.2 1018300
11:00+2ссз458394 0.3 1019635
14:00+3сз467294 0.4 1019857
17:00+2сз467797 0.2 1019660
20:000сз369798 0.3 1021256
1 марта, пн
пн123:000сз259698 0.1 1021213
02:00−1сз249687 0.1 1022179
05:00−1сз249675 0.1 1023211
08:000ссз238763 0.1 1024307
11:00+2ссз337066 0.1 1025802
14:00+3ссз336583 0.2 1026916
17:00+2сз3567100 0.1 1026260
20:00+1сз2570100 0.1 1028179
2 марта, вт
вт223:000зсз2471100 0.0 1028101
02:00−1з368792 0.0 1027241
05:00−1з5982100 0.0 1026394
08:00+1зюз61187100 0.0 1024467
11:00+4зюз81279100 0.0 1022682
14:00+4з81180100 0.0 1019925
17:00+3зсз61283100 0.0 1018700
20:00+3сз51287100 0.0 1018728